Regional Weather Roundup
Issued by NWS

Home | Current Version | Previous Version | Graphics & Text | Print | Product List | Glossary On
Versions: 1 2 3 4 5 6 7 8 9 10 11 12 13 14 15 16 17 18 19 20 21 22 23 24 25 26 27 28 29 30 31 32 33 34 35 36 37 38 39 40 41 42 43 44 45 46 47 48 49 50
000
ASUS43 KMPX 251810
RWRMN
WEATHER ROUNDUP FOR MINNESOTA
NATIONAL WEATHER SERVICE TWIN CITIES/CHANHASSEN MN
100 PM CDT SUN JUN 25 2017


NOTE: "FAIR" INDICATES FEW OR NO CLOUDS BELOW 12,000 FEET WITH NO
SIGNIFICANT WEATHER AND/OR OBSTRUCTIONS TO VISIBILITY. N/A MEANS
CURRENT SKY AND/OR WEATHER CONDITIONS ARE NOT AVAILABLE.

MNZ060>063-068>070-251900-
   Twin Cities Metro

CITY           SKY/WX    TMP DP  RH WIND       PRES   REMARKS
TWIN CITIES    CLOUDY    62  47  57 NW15G21   30.15S
6HR MIN TEMP:  55; 6HR MAX TEMP:  63; 6HR PCP: TRACE;

ST PAUL        PTSUNNY   64  49  57 NW17G26   30.15S
CRYSTAL        CLOUDY    63  43  48 NW15G25   30.14S
BLAINE         PTSUNNY   64  46  52 NW16      30.14F
LAKEVILLE      CLOUDY    61  48  63 NW14G24   30.16S
EDEN PRAIRIE   CLOUDY    65  47  52 NW15G24   30.15F
6HR MIN TEMP:  55; 6HR MAX TEMP:  65; 6HR PCP: TRACE;

SOUTH ST PAUL  PTSUNNY   63  47  57 NW12G22   30.15S
LAKE ELMO      CLOUDY    61  50  67 W13G18    30.15S
$$
MNZ001>005-007-008-013>017-022>024-027-028-251900-
   Northwest Minnesota

CITY           SKY/WX    TMP DP  RH WIND       PRES   REMARKS
BEMIDJI        PTSUNNY   59  41  51 NW15G23   30.17S
HALLOCK        PTSUNNY   59  45  58 NW15      30.21S
ROSEAU         RAIN      54  46  76 NW12G17   30.19S
WARROAD        PTSUNNY   55  48  76 W12G18    30.18R
THIEF RVR FALL PTSUNNY   59  42  53 NW15G23   30.21S
CROOKSTON      MOSUNNY   63  43  48 NW17G23   30.21F
FOSSTON        PTSUNNY   57  43  58 NW14G21   30.20F
DETROIT LAKES  MOSUNNY   61  43  51 NW13G20   30.22F
MOORHEAD       MOSUNNY   64  41  42 NW12G18   30.22F
PARK RAPIDS    PTSUNNY   63  38  39 NW16G28   30.18S
MAHNOMEN       MOCLDY    61  42  49 NW17      30.21S
$$
MNZ006-009>011-018-025>026-251900-
   North Central Minnesota

CITY           SKY/WX    TMP DP  RH WIND       PRES   REMARKS
BAUDETTE       LGT RAIN  55  46  71 N10       30.16R
FLAG ISLAND    CLOUDY    54  43  66 NW8       30.17R
INTL FALLS     CLOUDY    59  43  55 N15       30.12F
6HR MIN TEMP:  49; 6HR MAX TEMP:  59; 6HR PCP:  0.21;

WASKISH        CLOUDY    54  50  87 N3        30.16F
BIG FORK       MOSUNNY   61  45  55 N9        30.12F
LONGVILLE      PTSUNNY   57  45  62 W12       30.15S
GRAND RAPIDS   PTSUNNY   60  45  57 NW16G23   30.14F
CRANE LAKE     RAIN      48  48 100 NW7       30.12S
ORR            CLOUDY    50  45  81 NW8       30.10S
COOK           LGT RAIN  48  46  93 NW5       30.12S
WALKER         FAIR      58  44  58 N12G20    30.17R
$$
MNZ012-019>021-037-251900-
   Northeast Minnesota

CITY           SKY/WX    TMP DP  RH WIND       PRES   REMARKS
DULUTH         PTSUNNY   51  48  89 NW14G24   30.07S
6HR MIN TEMP:  50; 6HR MAX TEMP:  56; 6HR PCP:  0.08;

ELY            LGT RAIN  50  48  93 NW12G18   30.06R
HIBBING        CLOUDY    54  46  74 NW20G26   30.11S
EVELETH        CLOUDY    53  47  81 NW10      30.11S
DULUTH HARBOR  LGT RAIN  52  50  93 NW18      30.08R
TWO HARBORS    LGT RAIN  54  48  82 NW8G17    30.04R
SILVER BAY     RAIN      54  52  94 W6        30.03R
GRAND MARAIS     N/A     50  45  83 NE8       30.03S
G MARAIS ARPRT LGT RAIN  50  46  87 E7        30.03F
$$
MNZ029>031-032-039>041-046>048-054>057-064-251900-
   West Central Minnesota

CITY           SKY/WX    TMP DP  RH WIND       PRES   REMARKS
FERGUS FALLS   PTSUNNY   61  43  51 NW15      30.21S
WHEATON        MOSUNNY   64  41  42 NW14G20   30.25F
MORRIS         MOSUNNY   64  41  42 NW15G23   30.23S
ALEXANDRIA     MOSUNNY   63  42  46 NW18G25   30.22F
ELBOW LAKE     PTSUNNY   60  44  55 NW16      30.24S
WADENA         PTSUNNY   59  41  51 N16G22    30.19F
GLENWOOD       MOSUNNY   63  43  48 W22G29    30.22S
APPLETON       MOSUNNY   64  39  39 NW15G21   30.24S
BENSON         SUNNY     66  39  37 N16G26    30.24F
ORTONVILLE     MOSUNNY   64  43  45 NW10G23   30.25S
MADISON        MOSUNNY   66  45  45 NW14G29   30.25S
WILLMAR        FAIR      64  41  42 NW17G29   30.23S
$$
MNZ033>034-036-042>043-049>051-058-059-251900-
   Central Minnesota

CITY           SKY/WX    TMP DP  RH WIND       PRES   REMARKS
ST CLOUD       PTSUNNY   63  43  48 NW13G25   30.16F
6HR MIN TEMP:  51; 6HR MAX TEMP:  65;

SAUK CENTRE    FAIR      62  41  45 NW15G26   30.20S
PAYNESVILLE    MOSUNNY   63  39  41 NW16      30.20S
AITKIN         PTSUNNY   59  45  58 NW8G18    30.12S
PINE RIVER     PTSUNNY   61  45  55 NW12G20   30.18F
BRAINERD       PTSUNNY   61  40  45 NW12      30.16F
STAPLES        PTSUNNY   61  39  44 NW16      30.18S
LONG PRAIRIE   PTSUNNY   61  43  51 W13G22    30.20S
LITTLE FALLS   PTSUNNY   61  37  41 NW12G21   30.17S
LITCHFIELD     MOSUNNY   64  45  48 NW21G29   30.19F
BUFFALO        PTSUNNY   63  42  47 W15       30.18S
MAPLE LAKE     MOSUNNY   65  46  49 NW14G23   30.18S
HUTCHINSON     PTSUNNY   65  45  48 NW14G30   30.20S
$$
MNZ037-044-045-052-053-251900-
   East Central Minnesota

CITY           SKY/WX    TMP DP  RH WIND       PRES   REMARKS
PRINCETON      MOSUNNY   66  43  42 NW17G28   30.15S
MORA           PTSUNNY   59  46  63 NW12G24   30.15S
CAMBRIDGE      PTSUNNY   64  48  55 NW22      30.13S
RUSH CITY      CLOUDY    59  48  67 NW13G22   30.13S
MOOSE LAKE     PTSUNNY   57  46  67 NW13G23   30.10F
HINCKLEY       MOCLDY    61  48  63 NW13G25   30.12S
CLOQUET        CLOUDY    54  46  76 NW15G21   30.10R
MCGREGOR       MOSUNNY   59  45  58 NW14G23   30.13S
$$
MNZ071>073-080-081-089-090-097-098-251900-
   Southwest Minnesota

CITY           SKY/WX    TMP DP  RH WIND       PRES   REMARKS
MONTEVIDEO     MOSUNNY   66  43  42 N14G25    30.24S
GRANITE FALLS  MOSUNNY   66  43  43 NW17G24   30.25F
CANBY          MOSUNNY   68  42  39 W17       30.26F
MARSHALL       MOSUNNY   65  43  44 N23       30.24F
REDWOOD FALLS  SUNNY     66  40  38 NW15G25   30.22F
OLIVIA         MOSUNNY   63  41  45 NW16G25   30.21S
PIPESTONE      MOSUNNY   64  41  42 N14G23    30.27S
WINDOM         SUNNY     66  41  39 W20G31    30.24S
WORTHINGTON    PTSUNNY   64  42  44 NW17G23   30.26F
JACKSON        MOSUNNY   64  39  39 NW21G31   30.24F
TRACY          MOSUNNY   65  44  46 N16G26    30.25S
SLAYTON        MOSUNNY   63  43  48 NW17      30.26F
$$
MNZ065>067-074>077-082>085-091>093-251900-
   South Central Minnesota

CITY           SKY/WX    TMP DP  RH WIND       PRES   REMARKS
MANKATO        CLOUDY    64  45  49 NW18G26   30.19F
NEW ULM        MOSUNNY   64  41  42 NW18      30.20F
ST JAMES       SUNNY     66  39  37 W18G26    30.22F
FAIRMONT       SUNNY     65  41  41 NW20G30   30.22F
GLENCOE        PTSUNNY   64  49  57 NW17      30.18S
FARIBAULT      CLOUDY    61  48  63 NW14      30.18S
OWATONNA       CLOUDY    61  48  63 NW18      30.18S
WASECA         CLOUDY    63  46  55 NW16G24   30.20S
ALBERT LEA     CLOUDY    63  45  51 NW16G23   30.19S
$$
MNZ078>079-086>088-094>096-251900-
   Southeast Minnesota

CITY           SKY/WX    TMP DP  RH WIND       PRES   REMARKS
ROCHESTER      CLOUDY    58  50  75 W14       30.17F
6HR MIN TEMP:  51; 6HR MAX TEMP:  59; 6HR PCP: TRACE;

RED WING       CLOUDY    61  50  67 NW10      30.13F
STANTON        CLOUDY    62  50  65 NW9       30.15S
DODGE CENTER   CLOUDY    57  48  72 NW12      30.17S
WINONA         CLOUDY    61  52  72 NW13G18   30.14S
AUSTIN         CLOUDY    61  46  59 W17G23    30.18S
PRESTON        CLOUDY    58  49  73 NW15      30.17F
$$
ABBREVIATIONS USED IN REMARKS
   TC - TEMPERATURES IN CELSIUS
  WCI - WIND CHILL INDEX
   HX - HEAT INDEX
  VSB - VISIBILITY
$$




USA.gov is the U.S. government's official web portal to all federal, state and local government web resources and services.